Tracking 29528 objects as of 13-Sep-2024
HD Live streaming from Space Station
objects crossing your sky now

FENGYUN 1C DEB

Track FENGYUN 1C DEB now!
10-day predictions


NORAD ID: 29875
Int'l Code: 1999-025FV
Perigee: 758.2 km
Apogee: 875.3 km
Inclination: 98.5 °
Period: 101.1 minutes
Semi major axis: 7187 km
RCS: 0.0547 m2 (small)
Launch date: May 10, 1999
Source: People's Republic of China (PRC)
Launch site: Taiyaun Space Center, China (TSC)

Note: This is SATELLITE DEBRIS
Your satellite tracking list
Your tracking list is empty




NASA's NSSDC Master Catalog

Two Line Element Set (TLE):
1 29875U 99025FV  24256.69797990  .00000672  00000-0  29704-3 0  9991
2 29875  98.4713 319.7633 0081472 318.1700 168.6924 14.24676295918289
Source of the keplerian elements: AFSPC